Location: Mentone
(34.5413°N, 85.5351°W)
Time: 10:22:55
(UTC-05:00)

Tiros 1 despin weight - Visible Passes

Search period start: 28 September 2016 00:00
Search period end: 08 October 2016 00:00
Orbit: 596 x 644 km, 48.2° (Epoch: 28 September)

Date Brightness Start Highest point End Pass type
(mag) Time Alt. Az. Time Alt. Az. Time Alt. Az.
28 Sep ? 04:22:29 15° N 04:23:25 15° N 04:26:09 10° NE visible
28 Sep ? 06:01:48 10° NW 06:06:02 37° NNE 06:10:17 10° E visible
29 Sep ? 04:39:10 15° NNW 04:41:08 20° NNE 04:44:28 10° ENE visible
30 Sep ? 04:55:55 16° NNW 04:58:43 28° NNE 05:02:41 10° E visible
01 Oct ? 03:35:39 13° NE 03:35:39 13° NE 03:36:41 10° NE visible
01 Oct ? 05:12:47 16° NW 05:16:09 47° NNE 05:20:35 10° ESE visible
02 Oct ? 03:52:38 20° NE 03:52:38 20° NE 03:54:58 10° ENE visible
02 Oct ? 05:29:46 16° NW 05:33:25 90° SE 05:38:00 10° SE visible
03 Oct ? 04:09:45 32° NE 04:09:45 32° NE 04:13:03 10° E visible
03 Oct ? 05:46:55 14° WNW 05:50:33 43° SW 05:54:52 10° SSE visible
04 Oct ? 04:27:02 52° E 04:27:02 52° E 04:30:45 10° ESE visible
04 Oct ? 06:04:12 10° W 06:07:31 20° SW 06:10:52 10° S visible
05 Oct ? 04:44:26 49° SSE 04:44:26 49° SSE 04:47:56 10° SE visible
05 Oct ? 20:25:12 10° SSW 20:25:56 14° SSW 20:25:56 14° SSW visible
06 Oct ? 05:01:58 24° SSW 05:01:58 24° SSW 05:04:28 10° SSE visible
06 Oct ? 19:03:44 10° SSE 19:05:24 12° SE 19:06:13 11° ESE visible
06 Oct ? 20:42:01 10° SW 20:43:22 20° SW 20:43:22 20° SW visible
07 Oct ? 05:19:33 10° SSW 05:19:33 10° SSW 05:19:43 10° SSW visible
07 Oct ? 19:18:34 10° S 19:22:18 27° SE 19:23:31 23° ESE visible
07 Oct ? 20:59:26 10° WSW 21:00:40 18° W 21:00:40 18° W visible
